�������l�o���
Date,Time,MP-1(��Sv/h),MP-2(��Sv/h),MP-3(��Sv/h),MP-4(��Sv/h),MP-5(��Sv/h),MP-6(��Sv/h),MP-7(��Sv/h),MP-8(��Sv/h),����,����(m/s),���J
2019/12/08,00:00,0.717,1.032,0.691,1.292,0.903,0.412,0.718,0.682,���쐼,4.6,��
2019/12/08,00:10,0.714,1.034,0.693,1.291,0.901,0.409,0.719,0.679,��,4.9,��
2019/12/08,00:20,0.716,1.034,0.691,1.288,0.904,0.411,0.718,0.681,��,5.0,��
2019/12/08,00:30,0.717,1.031,0.691,1.291,0.902,0.411,0.718,0.680,��,5.3,��
2019/12/08,00:40,0.715,1.033,0.690,1.288,0.902,0.411,0.718,0.680,��,5.2,��
2019/12/08,00:50,0.714,1.033,0.691,1.289,0.905,0.410,0.717,0.681,��,5.5,��
2019/12/08,01:00,0.715,1.032,0.691,1.293,0.903,0.410,0.718,0.679,��,5.2,��
2019/12/08,01:10,0.716,1.033,0.691,1.290,0.905,0.411,0.718,0.681,��,4.7,��
2019/12/08,01:20,0.716,1.034,0.691,1.291,0.903,0.410,0.718,0.680,���쐼,4.9,��
2019/12/08,01:30,0.715,1.033,0.690,1.292,0.899,0.409,0.717,0.681,��,5.5,��
2019/12/08,01:40,0.715,1.030,0.691,1.293,0.903,0.410,0.717,0.681,��,6.0,��
2019/12/08,01:50,0.714,1.030,0.690,1.289,0.904,0.412,0.717,0.681,��,7.1,��
2019/12/08,02:00,0.717,1.033,0.692,1.289,0.903,0.410,0.718,0.678,��,7.4,��
2019/12/08,02:10,0.716,1.035,0.690,1.290,0.903,0.411,0.717,0.681,��,6.9,��
2019/12/08,02:20,0.715,1.033,0.690,1.289,0.904,0.410,0.718,0.679,��,5.8,��
2019/12/08,02:30,0.714,1.033,0.690,1.291,0.904,0.410,0.718,0.679,��,4.4,��
2019/12/08,02:40,0.715,1.031,0.691,1.291,0.904,0.411,0.717,0.679,���쐼,5.5,��
2019/12/08,02:50,0.716,1.032,0.690,1.288,0.902,0.409,0.716,0.680,���쐼,5.3,��
2019/12/08,03:00,0.716,1.032,0.689,1.292,0.902,0.411,0.717,0.680,��,3.9,��
2019/12/08,03:10,0.716,1.033,0.692,1.291,0.903,0.409,0.717,0.679,��,4.3,��
2019/12/08,03:20,0.715,1.034,0.688,1.292,0.904,0.411,0.718,0.680,��,4.5,��
2019/12/08,03:30,0.714,1.034,0.689,1.293,0.903,0.411,0.717,0.680,��,3.8,��
2019/12/08,03:40,0.715,1.035,0.692,1.292,0.904,0.411,0.718,0.680,��,3.6,��
2019/12/08,03:50,0.716,1.031,0.691,1.290,0.901,0.411,0.718,0.679,��,3.4,��
2019/12/08,04:00,0.714,1.034,0.690,1.291,0.901,0.410,0.718,0.680,���k��,2.8,��
2019/12/08,04:10,0.714,1.032,0.690,1.292,0.903,0.409,0.716,0.679,���k��,2.9,��
2019/12/08,04:20,0.717,1.031,0.690,1.289,0.904,0.409,0.717,0.679,�k��,1.9,��
2019/12/08,04:30,0.714,1.034,0.689,1.293,0.904,0.411,0.717,0.681,�k��,1.5,��
2019/12/08,04:40,0.714,1.033,0.691,1.290,0.902,0.410,0.718,0.678,�k�k��,1.8,��
2019/12/08,04:50,0.713,1.031,0.691,1.290,0.902,0.409,0.715,0.680,�k�k��,1.2,��
2019/12/08,05:00,0.715,1.032,0.690,1.291,0.901,0.410,0.715,0.679,�k��,1.5,��
2019/12/08,05:10,0.714,1.031,0.691,1.290,0.901,0.410,0.715,0.680,�k��,1.7,��
2019/12/08,05:20,0.715,1.031,0.691,1.291,0.902,0.409,0.715,0.680,�k��,1.3,��
2019/12/08,05:30,0.714,1.032,0.689,1.291,0.903,0.409,0.717,0.681,�k��,1.8,��
2019/12/08,05:40,0.713,1.034,0.691,1.290,0.902,0.410,0.715,0.681,���k��,1.5,��
2019/12/08,05:50,0.715,1.034,0.691,1.293,0.902,0.408,0.716,0.679,�k��,1.2,��
2019/12/08,06:00,0.715,1.032,0.690,1.291,0.901,0.411,0.717,0.679,���k��,0.8,��
2019/12/08,06:10,0.715,1.031,0.691,1.291,0.903,0.410,0.716,0.681,���k��,0.8,��
2019/12/08,06:20,0.714,1.030,0.690,1.289,0.903,0.410,0.716,0.682,-,CALM,��
2019/12/08,06:30,0.714,1.032,0.690,1.290,0.902,0.408,0.715,0.680,-,CALM,��
2019/12/08,06:40,0.711,1.030,0.690,1.292,0.901,0.408,0.716,0.679,-,CALM,��
2019/12/08,06:50,0.715,1.033,0.690,1.290,0.903,0.410,0.716,0.680,���쐼,0.8,��
2019/12/08,07:00,0.712,1.031,0.689,1.292,0.903,0.410,0.716,0.679,���쐼,1.3,��
2019/12/08,07:10,0.713,1.031,0.691,1.289,0.902,0.409,0.716,0.680,��,1.5,��
2019/12/08,07:20,0.713,1.031,0.690,1.291,0.902,0.408,0.715,0.679,�k��,3.1,��
2019/12/08,07:30,0.714,1.032,0.690,1.289,0.902,0.409,0.718,0.681,�k�k��,2.8,��
2019/12/08,07:40,0.713,1.033,0.691,1.290,0.901,0.410,0.716,0.680,�k�k��,1.7,��
2019/12/08,07:50,0.715,1.035,0.689,1.289,0.901,0.411,0.717,0.679,�k��,2.3,��
2019/12/08,08:00,0.713,1.031,0.688,1.291,0.903,0.409,0.715,0.679,���k��,2.3,��
2019/12/08,08:10,0.713,1.032,0.691,1.292,0.904,0.410,0.718,0.678,���k��,2.6,��
2019/12/08,08:20,0.715,1.033,0.692,1.291,0.901,0.410,0.718,0.680,�k�k��,1.7,��
2019/12/08,08:30,0.716,1.032,0.690,1.293,0.903,0.411,0.717,0.682,�k,2.0,��
2019/12/08,08:40,0.715,1.033,0.690,1.292,0.902,0.411,0.718,0.681,�k,1.4,��
2019/12/08,08:50,0.712,1.033,0.689,1.292,0.902,0.411,0.718,0.681,�k,2.3,��
2019/12/08,09:00,0.716,1.033,0.692,1.292,0.903,0.410,0.718,0.681,�k,2.7,��
2019/12/08,09:10,0.716,1.033,0.692,1.291,0.904,0.410,0.719,0.679,�k,2.1,��
2019/12/08,09:20,0.716,1.034,0.691,1.293,0.904,0.410,0.718,0.680,�k,1.8,��
2019/12/08,09:30,0.717,1.035,0.692,1.291,0.904,0.410,0.719,0.679,�k,2.2,��
2019/12/08,09:40,0.718,1.034,0.691,1.288,0.902,0.410,0.717,0.680,�k,2.5,��
2019/12/08,09:50,0.715,1.034,0.691,1.288,0.903,0.409,0.719,0.681,�k�k��,2.3,��
2019/12/08,10:00,0.717,1.032,0.690,1.291,0.903,0.409,0.717,0.680,�k,1.9,��
2019/12/08,10:10,0.717,1.033,0.692,1.289,0.905,0.410,0.717,0.680,�k,2.0,��
2019/12/08,10:20,0.718,1.034,0.689,1.291,0.902,0.411,0.718,0.681,�k,2.1,��
2019/12/08,10:30,0.717,1.035,0.691,1.290,0.905,0.410,0.717,0.679,�k,2.0,��
2019/12/08,10:40,0.716,1.037,0.691,1.292,0.907,0.409,0.715,0.680,�k�k��,1.8,��
2019/12/08,10:50,0.718,1.036,0.692,1.290,0.904,0.409,0.716,0.680,�k��,1.2,��
2019/12/08,11:00,0.715,1.034,0.691,1.292,0.906,0.411,0.716,0.681,�k��,0.6,��
2019/12/08,11:10,0.715,1.035,0.692,1.292,0.904,0.411,0.716,0.682,�k�k��,0.9,��
2019/12/08,11:20,0.719,1.036,0.690,1.293,0.904,0.410,0.716,0.681,�k��,1.0,��
2019/12/08,11:30,0.716,1.034,0.692,1.294,0.904,0.410,0.716,0.680,-,CALM,��
2019/12/08,11:40,0.716,1.035,0.690,1.292,0.904,0.410,0.717,0.681,�k��,0.7,��
2019/12/08,11:50,0.718,1.036,0.693,1.293,0.904,0.411,0.716,0.680,�k��,2.6,��
2019/12/08,12:00,0.717,1.036,0.692,1.293,0.906,0.410,0.714,0.682,�k��,2.9,��
2019/12/08,12:10,0.716,1.032,0.690,1.293,0.906,0.410,0.717,0.682,�k�k��,3.5,��
2019/12/08,12:20,0.716,1.034,0.691,1.294,0.904,0.411,0.717,0.681,�k�k��,3.6,��
2019/12/08,12:30,0.716,1.037,0.691,1.291,0.906,0.411,0.716,0.681,�k�k��,4.2,��
2019/12/08,12:40,0.716,1.035,0.692,1.291,0.906,0.411,0.717,0.681,�k�k��,3.8,��
2019/12/08,12:50,0.716,1.036,0.693,1.292,0.905,0.410,0.716,0.680,�k�k��,4.1,��
2019/12/08,13:00,0.715,1.036,0.691,1.295,0.905,0.409,0.717,0.680,�k�k��,3.8,��
2019/12/08,13:10,0.718,1.035,0.691,1.291,0.905,0.409,0.716,0.681,�k�k��,3.8,��
2019/12/08,13:20,0.716,1.036,0.690,1.291,0.905,0.409,0.717,0.681,�k�k��,2.2,��
2019/12/08,13:30,0.718,1.038,0.693,1.293,0.905,0.412,0.717,0.681,�k��,3.5,��
2019/12/08,13:40,0.717,1.036,0.692,1.293,0.905,0.409,0.718,0.681,�k�k��,4.0,��
2019/12/08,13:50,0.716,1.037,0.692,1.293,0.905,0.411,0.716,0.681,�k�k��,3.8,��
2019/12/08,14:00,0.716,1.034,0.692,1.292,0.905,0.410,0.716,0.681,�k,2.7,��
2019/12/08,14:10,0.716,1.038,0.692,1.292,0.904,0.409,0.716,0.681,�k�k��,2.7,��
2019/12/08,14:20,0.716,1.035,0.693,1.292,0.906,0.408,0.717,0.680,�k,2.5,��
2019/12/08,14:30,0.718,1.036,0.693,1.292,0.904,0.409,0.716,0.682,�k�k��,2.5,��
2019/12/08,14:40,0.718,1.034,0.690,1.293,0.904,0.410,0.716,0.682,�k�k��,4.0,��
2019/12/08,14:50,0.716,1.036,0.692,1.295,0.906,0.410,0.717,0.682,�k�k��,3.2,��
2019/12/08,15:00,0.716,1.035,0.691,1.293,0.904,0.410,0.716,0.681,�k�k��,2.5,��
2019/12/08,15:10,0.717,1.036,0.689,1.293,0.905,0.410,0.716,0.680,�k�k��,2.9,��
2019/12/08,15:20,0.718,1.034,0.692,1.294,0.905,0.409,0.717,0.681,�k�k��,3.3,��
2019/12/08,15:30,0.715,1.036,0.691,1.292,0.906,0.410,0.717,0.681,�k�k��,4.9,��
2019/12/08,15:40,0.715,1.034,0.691,1.292,0.903,0.409,0.716,0.681,�k��,5.0,��
2019/12/08,15:50,0.717,1.033,0.690,1.294,0.905,0.410,0.718,0.680,�k��,6.0,��
2019/12/08,16:00,0.716,1.036,0.691,1.296,0.904,0.410,0.717,0.681,�k��,6.0,��
2019/12/08,16:10,0.715,1.037,0.692,1.290,0.904,0.409,0.718,0.679,�k��,6.3,��
2019/12/08,16:20,0.718,1.034,0.689,1.293,0.905,0.409,0.716,0.679,�k��,6.0,��
2019/12/08,16:30,0.714,1.035,0.692,1.292,0.905,0.409,0.717,0.680,�k��,4.4,��
2019/12/08,16:40,0.715,1.035,0.691,1.292,0.901,0.409,0.718,0.679,�k��,3.8,��
2019/12/08,16:50,0.714,1.033,0.692,1.293,0.903,0.411,0.718,0.680,�k��,4.5,��
2019/12/08,17:00,0.715,1.035,0.691,1.293,0.907,0.409,0.718,0.680,�k��,4.9,��
2019/12/08,17:10,0.714,1.035,0.691,1.294,0.904,0.409,0.716,0.678,�k��,3.9,��
2019/12/08,17:20,0.714,1.034,0.692,1.295,0.904,0.409,0.716,0.680,�k��,3.8,��
2019/12/08,17:30,0.715,1.034,0.690,1.291,0.905,0.409,0.717,0.679,�k��,4.4,��
2019/12/08,17:40,0.715,1.033,0.690,1.291,0.905,0.410,0.717,0.680,�k��,4.3,��
2019/12/08,17:50,0.715,1.034,0.690,1.290,0.906,0.408,0.716,0.680,�k��,5.3,��
2019/12/08,18:00,0.715,1.035,0.689,1.292,0.904,0.408,0.716,0.678,�k��,4.9,��
2019/12/08,18:10,0.715,1.034,0.690,1.291,0.904,0.409,0.718,0.678,�k��,5.2,��
2019/12/08,18:20,0.712,1.034,0.693,1.291,0.906,0.407,0.716,0.679,�k��,4.9,��
2019/12/08,18:30,0.711,1.035,0.690,1.291,0.904,0.409,0.716,0.679,�k��,5.2,��
2019/12/08,18:40,0.713,1.034,0.690,1.294,0.903,0.408,0.717,0.678,�k��,5.2,��
2019/12/08,18:50,0.713,1.033,0.690,1.293,0.906,0.407,0.717,0.681,�k��,6.4,��
2019/12/08,19:00,0.714,1.035,0.690,1.289,0.902,0.407,0.716,0.679,���k��,6.3,��
2019/12/08,19:10,0.712,1.033,0.690,1.290,0.904,0.407,0.716,0.681,�k��,8.0,��
2019/12/08,19:20,0.713,1.034,0.690,1.292,0.904,0.409,0.714,0.679,�k��,8.0,��
2019/12/08,19:30,0.712,1.033,0.691,1.294,0.903,0.408,0.717,0.679,���k��,6.1,��
2019/12/08,19:40,0.714,1.034,0.691,1.294,0.904,0.407,0.715,0.678,���k��,6.1,��
2019/12/08,19:50,0.715,1.034,0.689,1.292,0.904,0.407,0.715,0.678,���k��,5.2,��
2019/12/08,20:00,0.713,1.033,0.691,1.293,0.903,0.408,0.716,0.678,���k��,6.0,��
2019/12/08,20:10,0.712,1.033,0.690,1.291,0.902,0.409,0.717,0.679,���k��,6.7,��
2019/12/08,20:20,0.714,1.035,0.691,1.294,0.903,0.407,0.716,0.679,���k��,6.9,��
2019/12/08,20:30,0.713,1.034,0.689,1.292,0.905,0.408,0.714,0.680,���k��,6.7,��
2019/12/08,20:40,0.714,1.035,0.690,1.293,0.902,0.408,0.716,0.678,���k��,7.7,��
2019/12/08,20:50,0.710,1.034,0.690,1.293,0.904,0.407,0.715,0.680,�k��,7.7,��
2019/12/08,21:00,0.715,1.033,0.689,1.290,0.902,0.410,0.717,0.681,���k��,6.7,��
2019/12/08,21:10,0.713,1.032,0.690,1.290,0.901,0.409,0.714,0.679,���k��,5.8,��
2019/12/08,21:20,0.712,1.035,0.689,1.291,0.904,0.408,0.715,0.679,���k��,5.8,��
2019/12/08,21:30,0.712,1.033,0.690,1.292,0.901,0.408,0.716,0.680,���k��,5.8,��
2019/12/08,21:40,0.713,1.033,0.690,1.290,0.903,0.406,0.714,0.678,���k��,6.1,��
2019/12/08,21:50,0.713,1.033,0.690,1.292,0.904,0.408,0.718,0.679,���k��,6.0,��
2019/12/08,22:00,0.714,1.030,0.690,1.292,0.902,0.409,0.716,0.680,�k��,6.1,��
2019/12/08,22:10,0.713,1.034,0.689,1.292,0.902,0.407,0.716,0.679,���k��,5.2,��
2019/12/08,22:20,0.712,1.031,0.690,1.290,0.903,0.407,0.715,0.679,���k��,4.2,��
2019/12/08,22:30,0.711,1.030,0.690,1.293,0.901,0.407,0.717,0.682,���k��,4.4,��
2019/12/08,22:40,0.712,1.031,0.689,1.290,0.902,0.407,0.716,0.680,���k��,4.2,��
2019/12/08,22:50,0.712,1.035,0.688,1.291,0.902,0.408,0.718,0.679,���k��,4.2,��
2019/12/08,23:00,0.711,1.034,0.689,1.292,0.903,0.407,0.715,0.678,���k��,3.6,��
2019/12/08,23:10,0.714,1.032,0.689,1.290,0.901,0.407,0.715,0.679,���k��,5.0,��
2019/12/08,23:20,0.711,1.032,0.691,1.291,0.904,0.409,0.716,0.679,���k��,6.0,��
2019/12/08,23:30,0.712,1.034,0.690,1.293,0.902,0.407,0.715,0.679,���k��,5.0,��
2019/12/08,23:40,0.712,1.031,0.687,1.291,0.901,0.408,0.715,0.680,���k��,4.6,��
2019/12/08,23:50,0.711,1.030,0.689,1.292,0.903,0.408,0.714,0.680,���k��,4.5,��
